Location: Baumgarten
(49.0970°N, 12.7493°E)
Time: 07:56:51
(UTC+00:00)

ERS-1 Rocket - Pass Details

Date: 05 July 2020
Orbit: 752 x 758 km, 98.5° (Epoch: 04 August)

Event Time Altitude Azimuth Distance (km) Brightness Sun altitude
Exits shadow 20:56:51 12° 179° (S) 2,149 4.8 -12.0°
Maximum altitude 21:01:28 60° 258° (WSW) 866 3.4 -12.4°
Drops below altitude 10° 21:06:29 10° 339° (NNW) 2,299 6.9 -12.8°
Sets 21:08:49 0° 343° (NNW) 3,228 8.0 -13.0°
